Find Horizons 2

NORAD ID: 32388 Int'l Des: 2007-063 Owner: HORZ Country: US operational
HEOCIRCULARGSO

实时位置

正在加载3D地球...

关于 Horizons 2

正在加载描述...

即将过境

Passes for default location (London). Set your location on the main map for personalized predictions.

高度历史

Loading altitude history...

两行轨道根数

1 32388U 07063B 26106.26268259 -.00000245 00000-0 00000-0 0 9997
2 32388 2.4419 81.3569 0003050 314.7334 189.1097 1.00270984 67190
Epoch: Apr 16, 2026 • Age: 8 hours

当前状态

高度 35778.2 km
速度 3.08 km/s
星下点 -2.42°S, 73.82°W
发射日期 Dec 21, 2007
运行时间 18.3 years
类型 other

技术详情

分类 Payload
质量 2304.00 kg
干质量 1018.00 kg
总质量 2304.00 kg
长度 3.90 m
直径 2.30 m
跨度 18.10 m
形状 Box + 2 Pan
制造商 OSCD
平台类型 OSC Star 2.4
阶段状态 In Orbit
所有者/国家 HORZ/US

Most Searched